Regional Weather Roundup
Issued by NWS Sioux Falls, SD

Home | Current Version | Previous Version | Text Only | Print | Product List | Glossary On
Versions: 1 2 3 4 5 6 7 8 9 10 11 12 13 14 15 16 17 18 19 20 21 22 23 24 25 26 27 28 29 30 31 32 33 34 35 36 37 38 39 40 41 42 43 44 45 46 47 48 49 50
000
ASUS43 KFSD 300602
RWRFSD

WEATHER ROUNDUP FOR SE SOUTH DAKOTA/SW MINNESOTA/NW IOWA
NATIONAL WEATHER SERVICE SIOUX FALLS SD
100 AM CDT FRI SEP 30 2016

NOTE: "FAIR" INDICATES FEW OR NO CLOUDS BELOW 12,000 FEET WITH NO
SIGNIFICANT WEATHER AND OR OBSTRUCTIONS TO VISIBILITY.


SDZ038>040-050-052>070-300700-
SOUTHEAST SOUTH DAKOTA

CITY           SKY/WX    TMP DP  RH WIND       PRES   REMARKS
CHAMBERLAIN    CLEAR     51  48  87 SE8       30.29F
6HR MIN TEMP:  51; 6HR MAX TEMP:  65;

HURON          CLEAR     48  44  86 SE7       30.32F
6HR MIN TEMP:  48; 6HR MAX TEMP:  65;

MADISON        FAIR      45  45 100 SE5       30.36S
MITCHELL       CLEAR     49  45  86 SE5       30.34S
6HR MIN TEMP:  49; 6HR MAX TEMP:  65;

SIOUX FALLS    CLEAR     48  45  89 NE3       30.36S
6HR MIN TEMP:  47; 6HR MAX TEMP:  65;

WINNER         FAIR      53  45  74 S9        30.28F
YANKTON        CLEAR     50  46  87 CALM      30.33S
$$

MNZ071-072-080-081-089-090-097-098-300700-
SOUTHWEST MINNESOTA

CITY           SKY/WX    TMP DP  RH WIND       PRES   REMARKS
FAIRMONT       CLEAR     47  45  93 NW3       30.37F
JACKSON        CLEAR     45  41  87 CALM      30.38F
LUVERNE        CLEAR     45  43  93 CALM      30.37F
MARSHALL       CLEAR     46  44  93 CALM      30.38F
6HR MIN TEMP:  45; 6HR MAX TEMP:  63;

MONTEVIDEO     CLEAR     48  46  93 S6        30.39F
PIPESTONE      CLEAR     48  45  87 E5        30.37S
REDWOOD FALLS  CLEAR     50  47  89 NE3       30.38S
TRACY          CLEAR     52  48  86 CALM      30.38F
WINDOM         CLEAR     48  46  93 E3        30.37F
WORTHINGTON    CLEAR     48  45  89 E7        30.38S
$$

IAZ001>003-012>014-020>022-031-032-NEZ013-014-SDZ071-300700-
NORTHWEST IOWA

CITY           SKY/WX    TMP DP  RH WIND       PRES   REMARKS
CHEROKEE       CLEAR     46  46 100 CALM      30.36F
DENISON        CLEAR     45  45 100 CALM      30.32F
ESTHERVILLE    CLEAR     43  43 100 NE3       30.36F
LE MARS        CLEAR     46  45  93 CALM      30.36F
SHELDON        CLEAR     48  46  93 E8        30.35F
SIOUX CITY     CLEAR     48  46  93 CALM      30.35F
6HR MIN TEMP:  46; 6HR MAX TEMP:  67;

SPENCER        CLEAR     44  43  96 CALM      30.37S
6HR MIN TEMP:  42; 6HR MAX TEMP:  60;

STORM LAKE     CLEAR     54  46  76 NE8       30.36S
$$

ABBREVIATIONS USED IN REMARKS
   TC - TEMPERATURE IN CELSIUS
  WCI - WIND CHILL INDEX
   HX - HEAT INDEX
  VSB - VISIBILITY




USA.gov is the U.S. government's official web portal to all federal, state and local government web resources and services.